NOAA 16 DEB, 42390

Orbit data source: Space-Track

NOAA 16 DEB, 42390 is space debris in SSO originally from a launch on Thu, 21 Sep 2000 UTC launched from the Air Force Western Test Range (AFWTR). Debris objects in space refer to the collection of defunct objects orbiting the Earth. Examples of debris include non-operational satellites, rocket bodies, and fragments generated from explosions, collisions, or faulty payload assembly.

Loading next visibility...
Identifier
42390, 2000-055SJ
Orbit
SSO
Country
Flag of USUS
Related business
Manufacturer
Unknown
Mission
Spacecraft
Bus & Motor
Unknown
Mass
Unknown
Launch date (UTC)
2000-09-21 (25 years ago)
Launch vehicle
Unknown
Launch site
Air Force Western Test Range (AFWTR)
Object type
Payload
Rocket body
Debris
Shape & HBR
Unknown shape, 0.1 m
Radar Cross Section
Small (<0.1 m²)

Expand to show TLE details & history
Last TLE update: 11 hours ago

TLE from 11 hours ago
0 NOAA 16 DEB
1 42390U 00055SJ  26062.14417880  .00003170  00000-0  12707-2 0  9997
2 42390  98.6249 137.7113 0016668 131.7883 228.4726 14.28896619519234
Epoch: 2026-03-03T03:27Z
TLE epoch observation values (Epoch: 2026-03-03T03:27:37.048Z)
Latitude
Longitude
-75.12052°
Altitude
806.291 km
Speed
7.446 km/s
True Right ascension
09h 10m 50s
True Declination
0° 00' 00"
Sunlit
Object was in full shadow at epoch
Visualization orbit readout
Latitude
Unknown
Longitude
Unknown
Altitude
Unknown
Speed
Unknown
Apparent Right ascension
Unknown
Apparent Declination
Unknown
Sunlit
N/A
Visualization observer readout
Local Sidereal Time
18:37:42
Azimuth
Unknown
Elevation
Unknown
Doppler factor
Unknown
Orbital elements
Apogee altitude
804.516 km
Perigee altitude
780.612 km
Semi-major axis
7,170.701 km
Eccentricity
0.00167
Inclination
98.6249°
RAAN
137.7113°
Arg. of periapsis
131.7883°
True anomaly
228.32981°
Mean anomaly
228.4726°
Eccentric anomaly
228.40118°
Mean motion
3.57438 °/min
Orbital period
100.72 mins
BSTAR
0.0012707
Loading maneuver chart data...
Computing Atmospheric mass density...
Loading historical data...
Loading historical data...
Loading historical data...
Loading historical data...
Loading historical data...
Loading historical data...
Loading historical data...

Documentation

Showing up to 5 results
|